Regional Weather Roundup
Issued by NWS Newport/Morehead, NC

Current Version | Previous Version | Text Only | Print | Product List | Glossary On
Versions: 1 2 3 4 5 6 7 8 9 10 11 12 13 14 15 16 17 18 19 20 21 22 23 24 25 26 27 28 29 30 31 32 33 34 35 36 37 38 39 40 41 42 43 44 45 46 47 48 49 50
000
ASUS42 KMHX 310410
RWRMHX
WEATHER ROUNDUP FOR EASTERN NORTH CAROLINA
NATIONAL WEATHER SERVICE NEWPORT/MOREHEAD CITY NC
1100 PM EST FRI JAN 30 2015

NOTE: "FAIR" INDICATES FEW OR NO CLOUDS BELOW 12,000 FEET
WITH NO SIGNIFICANT WEATHER AND/OR OBSTRUCTIONS TO VISIBILITY

NCZ015>017-031-032-045>047-102-103-310500-
NORTH COAST

CITY           SKY/WX    TMP DP  RH WIND       PRES   REMARKS
EDENTON        CLEAR     33  13  44 NW13G21   30.23R
ELIZABETH CITY CLEAR     32  11  41 NW22G30   30.21R WCI  19
KITTY HAWK     CLEAR     33  13  43 NW14G22   30.17R
MANTEO         CLEAR     34  12  40 NW18G30   30.19R

$$

NCZ045>047-081-094-103-104-310500-
CENTRAL COAST

CITY           SKY/WX    TMP DP  RH WIND       PRES   REMARKS
FRISCO         CLEAR     36  18  48 N13G26    30.18R
SWANQUARTER    NOT AVBL

$$

NCZ095-097-098-100-101-310500-
SOUTHERN COAST

CITY           SKY/WX    TMP DP  RH WIND       PRES   REMARKS
BEAUFORT       CLEAR     37  17  44 N20       30.23R
CEDAR ISLAND   NOT AVBL
JACKSONVILLE   FAIR      36  12  37 NW16G23   30.26R
PINEY ISLAND     N/A    N/A N/A N/A MISG      30.22R
WILMINGTON     CLEAR     38  15  39 NW16      30.26R


$$

NCZ011>013-027>030-043-044-078>080-089-090>093-098-310500-
COASTAL PLAIN

CITY           SKY/WX    TMP DP  RH WIND       PRES   REMARKS
AHOSKIE        CLEAR     30   9  40 NW3       30.27R
CLINTON        CLEAR     35  14  42 NW5       30.30R
ELIZABETHTOWN  PTCLDY    37   9  31 NW5       30.30R
GOLDSBORO      CLEAR     43  18  36 NW7       30.16R
GREENVILLE     CLEAR     34  10  37 NW7       30.28R
HAVELOCK       CLEAR     37  12  35 NW17G30   30.25R
KENANSVILLE    CLEAR     34  10  37 NW10G17   30.29R
KINSTON        CLEAR     34  12  41 NW6       30.28R
NEW BERN       CLEAR     37  13  37 NW10      30.26R
RICHLANDS      CLEAR     36   9  32 NW6G16    30.28R
ROCKY MOUNT    CLEAR     32  11  41 NW7       30.29R
WASHINGTON     CLEAR     33  10  39 NW7       30.26R
WHITEVILLE     PTCLDY    38  15  38 NW3       30.30R

$$

AMZ130-135-150-152-154-156-158-170-250-252-270-ANZ085-086-088-633-658-670-310500-
MARINE OBSERVATIONS

STATION/POSITION TIME  TEMP    WIND        PRES    WAVE   SWELL
                       AIR SEA DIR/SP/G            HT/PER HT/PER
                 (UTC) (F)     (DEG/KT/KT) (MB)    (FT/S) (FT/S)
CHESAPEAKE LIGHT 0300   33     320/ 34/ 38 1021.4
64 E VA BEACH    0400   36 48  320/ 29/ 37 1018.8   11/ 8
DUCK             0400   34 43  320/ 24/ 30 1020.7
2 E DUCK         0400      43                N/A     6/ 6
10 NE DUCK       0400      44                N/A     8/ 6
OREGON INLET     0400   35 42  310/ 22/ 30 1021.5
13E OREGON INLT  0400      44                N/A     9/ 8   2/11
HATTERAS CG      0400   38 44  340/ 25/ 32 1022.3
DIAMOND BUOY     0400   42 65  330/ 25/ 31 1020.9    6/ 6   2/10
17 S OCRACOKE    NOT AVBL
CAPE LOOKOUT     0300   41     330/ 20/ 26 1022.4
BEAUFORT LAB     0400   38 46  330/ 12/ 21 1022.5
27 SE WRIGHTSVLE NOT AVBL
5 SE WRIGHTSVLE  0300   44 52  340/ 19/ 23 1023.6
225 S CAPE HAT   0305   58 71  320/ 23/ 29 1019.0   12/ 8
41 SE CHARLESTON 0400   53 68  350/ 23/ 29 1023.8    6/ 6   2/11

$$


USA.gov is the U.S. government's official web portal to all federal, state and local government web resources and services.